Weather History for New Philadelphia, OH

Change the Weather History Date:

Saturday, January 11, 2014

  Actual Average Record
Temperature  
Mean Temperature 46 °F 29 °F  
Max Temperature 56 °F 37 °F 60 °F (1975)
Min Temperature 35 °F 21 °F -9 °F (1982)
Degree Days  
Heating Degree Days 19 36  
Month to date heating degree days 445 396  
Since 1 July heating degree days 2646 2557  
Cooling Degree Days 0 0  
Month to date cooling degree days 0 0  
Year to date cooling degree days 0 0  
Moisture  
Dew Point 43 °F    
Average Humidity 79    
Maximum Humidity 93    
Minimum Humidity 65    
Precipitation  
Precipitation 0.86 in 0.08 in 0.94 in (2005)
Month to date precipitation 1.34 1.04  
Year to date precipitation 1.34 1.04  
Sea Level Pressure  
Sea Level Pressure 29.57 in    
Wind  
Wind Speed 11 mph (SW)    
Max Wind Speed 24 mph    
Max Gust Speed 37 mph    
Visibility 8 miles    
Events Rain    
T = Trace of Precipitation, MM = Missing Value Source: NWS Daily Summary

Daily Weather History Graph

Daily Weather History Graph

Search for Another Location

Airport:

Trip Planner

Search our weather history database for the weather conditions in past years. The results will help you decide how hot, cold, wet, or windy it might be!

Date:

Astronomy

Jan. 11, 2014 Rise Set
Actual Time 7:48 AM EST 5:19 PM EST
Civil Twilight 7:18 AM EST 5:49 PM EST
Nautical Twilight 6:44 AM EST 6:23 PM EST
Astronomical Twilight 6:11 AM EST 6:56 PM EST
Moon 2:02 PM EST (1/11) 3:51 AM EST (1/11)
Length of Visible Light 10h 31m
Length of Day
9h 31m
Waxing Gibbous, 83% of the Moon is Illuminated
Jan 11
Waxing Gibbous
Jan 15
Full
Jan 24
Last Quarter
Jan 30
New
Feb 6
First Quarter

Hourly Weather History & Observations

Time (EST) Temp. Windchill Dew Point Humidity Pressure Visibility Wind Dir Wind Speed Gust Speed Precip Events Conditions
12:53 AM 46.9 °F - 43.0 °F 86% 29.78 in 10.0 mi SSE 4.6 mph - N/A   Overcast
1:53 AM 52.0 °F - 45.0 °F 77% 29.74 in 10.0 mi South 6.9 mph - N/A   Mostly Cloudy
2:53 AM 55.0 °F - 46.9 °F 74% 29.71 in 10.0 mi South 10.4 mph - N/A   Overcast
3:53 AM 55.0 °F - 46.9 °F 74% 29.68 in 10.0 mi SSW 5.8 mph - N/A   Overcast
4:09 AM 54.0 °F - 46.9 °F 77% 29.67 in 5.0 mi West 4.6 mph - 0.03 in Rain Rain
4:25 AM 53.1 °F - 48.0 °F 83% 29.65 in 2.5 mi Calm Calm - 0.10 in Rain Heavy Rain
4:32 AM 51.1 °F - 48.9 °F 92% 29.64 in 5.0 mi Calm Calm - 0.10 in Rain Light Rain
4:49 AM 50.0 °F - 48.2 °F 94% 29.66 in 2.0 mi WNW 8.1 mph - 0.18 in Rain Heavy Rain
4:53 AM 51.1 °F - 48.0 °F 89% 29.67 in 1.8 mi West 6.9 mph - 0.24 in Rain Heavy Rain
5:09 AM 52.0 °F - 48.9 °F 89% 29.64 in 2.0 mi Variable 3.5 mph - 0.11 in Rain Heavy Rain
5:19 AM 52.0 °F - 48.9 °F 89% 29.63 in 6.0 mi SSW 5.8 mph - 0.12 in Rain Light Rain
5:53 AM 53.1 °F - 48.9 °F 86% 29.62 in 6.0 mi South 5.8 mph - 0.16 in Rain Light Rain
6:53 AM 52.0 °F - 48.9 °F 89% 29.61 in 6.0 mi South 5.8 mph - 0.13 in Rain Rain
7:53 AM 51.1 °F - 48.9 °F 92% 29.59 in 4.0 mi South 5.8 mph - 0.15 in Rain Heavy Rain
8:53 AM 50.0 °F - 48.0 °F 93% 29.54 in 10.0 mi South 5.8 mph - 0.08 in Rain Light Rain
8:59 AM 51.1 °F - 48.0 °F 89% 29.53 in 10.0 mi South 3.5 mph - 0.00 in Rain Light Rain
9:53 AM 51.1 °F - 48.0 °F 89% 29.53 in 10.0 mi South 5.8 mph - 0.00 in   Overcast
10:53 AM 52.0 °F - 48.0 °F 86% 29.48 in 10.0 mi South 11.5 mph 18.4 mph N/A   Scattered Clouds
11:40 AM 54.0 °F - 48.0 °F 80% 29.43 in 10.0 mi SSW 15.0 mph 21.9 mph N/A   Mostly Cloudy
11:53 AM 53.1 °F - 48.0 °F 83% 29.45 in 10.0 mi SSW 12.7 mph 24.2 mph N/A   Overcast
12:10 PM 53.1 °F - 48.0 °F 83% 29.42 in 10.0 mi SSW 13.8 mph 21.9 mph N/A   Overcast
12:39 PM 52.0 °F - 48.9 °F 89% 29.42 in 2.0 mi SSW 9.2 mph 21.9 mph 0.00 in Rain Light Rain
12:53 PM 52.0 °F - 48.9 °F 89% 29.40 in 2.0 mi SW 8.1 mph 18.4 mph 0.02 in Rain Light Rain
1:19 PM 52.0 °F - 48.0 °F 86% 29.40 in 4.0 mi WSW 16.1 mph 27.6 mph 0.04 in Rain Light Rain
1:28 PM 52.0 °F - 46.9 °F 83% 29.40 in 10.0 mi WSW 17.3 mph 29.9 mph 0.04 in Rain Light Rain
1:53 PM 53.1 °F - 46.0 °F 77% 29.40 in 10.0 mi SW 19.6 mph 36.8 mph 0.04 in   Mostly Cloudy
2:53 PM 52.0 °F - 44.1 °F 74% 29.42 in 6.0 mi West 18.4 mph 32.2 mph 0.02 in Rain Rain
3:45 PM 48.0 °F - 39.0 °F 71% 29.46 in 10.0 mi West 15.0 mph 24.2 mph 0.02 in   Mostly Cloudy
3:53 PM 46.9 °F - 37.9 °F 71% 29.47 in 10.0 mi West 16.1 mph 28.8 mph 0.02 in   Overcast
4:14 PM 46.0 °F 39.6 °F 36.0 °F 68% 29.48 in 10.0 mi West 15.0 mph 31.1 mph N/A   Overcast
4:53 PM 45.0 °F 37.9 °F 34.0 °F 65% 29.51 in 10.0 mi West 16.1 mph 23.0 mph N/A   Overcast
5:49 PM 42.8 °F 35.8 °F 33.8 °F 70% 29.52 in 10.0 mi West 13.8 mph 23.0 mph N/A   Overcast
5:53 PM 42.1 °F 34.5 °F 33.1 °F 70% 29.53 in 10.0 mi West 15.0 mph 25.3 mph N/A   Overcast
6:11 PM 42.1 °F 34.9 °F 30.9 °F 65% 29.54 in 10.0 mi West 13.8 mph 24.2 mph N/A   Overcast
6:53 PM 41.0 °F 33.9 °F 30.9 °F 67% 29.57 in 10.0 mi West 12.7 mph 21.9 mph N/A   Overcast
7:53 PM 39.0 °F 30.3 °F 30.0 °F 70% 29.62 in 10.0 mi West 16.1 mph 25.3 mph N/A   Overcast
8:53 PM 37.0 °F 28.9 °F 30.0 °F 76% 29.66 in 10.0 mi West 12.7 mph 19.6 mph N/A   Overcast
9:53 PM 37.0 °F 28.5 °F 30.0 °F 76% 29.69 in 10.0 mi WSW 13.8 mph 21.9 mph N/A   Overcast
10:53 PM 36.0 °F 28.0 °F 28.9 °F 76% 29.73 in 10.0 mi West 11.5 mph 19.6 mph N/A   Overcast
11:53 PM 35.1 °F 25.9 °F 26.1 °F 70% 29.75 in 10.0 mi West 13.8 mph 26.5 mph N/A   Overcast